Weather in Repino

Russia / Saint-Petersburg and Leningrad Oblast     60°09′43″N   29°52′27″E
temp.,
°C
wind,
m/s
gust,
m/s
humid.,
%
clouds,
%
prec.,
mm/h
press.,
hPa
HPBL,
m
28 november, sun
sun2800:00−3ne71477100 0.0 1002796
03:00−3ne71477100 0.0 1001792
06:00−3ne71380100 0.0 1000826
09:00−3ne71385100 0.1 1001822
12:00−4ne61285100 0.1 1001815
15:00−4nne51087100 0.7 1002791
18:00−4ne598499 0.2 1004785
21:00−4ne388799 0.3 1006683
29 november, mon
mon2900:00−4ne488795 0.1 1008701
03:00−5ne389298 0.1 1009527
06:00−5ene499194 0.1 1008676
09:00−4ene51179100 0.2 1008929
12:00−4ene51174100 0.0 1008821
15:00−4ene61280100 0.0 1005766
18:00−4ene61383100 0.0 1002697
21:00−4ne71384100 0.1 999677
30 november, tue
tue3000:00−4ne71587100 0.3 994646
03:00−4ne71392100 1.6 991706
06:00−3ne61293100 1.9 987671
09:00−3nne61193100 3.7 984640
12:00−3n51194100 1.7 983559
15:00−4n51194100 3.9 981486
18:00−6nnw51093100 1.2 981350
21:00−6nnw499399 2.0 981445
1 december, wed
wed100:00−6nw599299 0.4 982608
03:00−5nw51090100 0.6 983715
06:00−5wnw51090100 0.3 984767
09:00−6wnw61188100 0.4 986646
12:00−7wnw5108769 0.1 988667
15:00−8wnw5108860 0.1 989530
18:00−9wnw49906 0.0 991314
21:00−10wnw389323 0.0 991248
2 december, thu
thu200:00−12nw249456 0.0 992109
03:00−12nnw229450 0.0 99280
06:00−13ne119473 0.0 99146
09:00−13ne2295100 0.0 99071
12:00−9ne3589100 0.0 990207
15:00−9nne368699 0.0 990270
18:00−8n4890100 0.0 992277
21:00−8nnw5989100 0.0 994282